• In Österreich
  • Länderverzeichnis
  • Für 7 Tage
  • Wassertemperatur
  • Satellitenkarten
  • Wetterkarte
  • News
  • Widgets
  • user-avatar
    Anmelden

    Stündliche Wetter Julara

    Heute, 16 August, Donnerstag

    Zeit Temperatur Niederschläge Wind Luftdruck Luftfeuchtigkeit
    00:00 +17°C° 0 mm 3 m/S 719 mmHg 15%
    01:00 +16°C° 0 mm 3 m/S 718 mmHg 17%
    02:00 +15°C° 0 mm 4 m/S 718 mmHg 18%
    03:00 +14°C° 0 mm 4 m/S 718 mmHg 20%
    04:00 +13°C° 0 mm 4 m/S 718 mmHg 23%
    05:00 +13°C° 0 mm 4 m/S 718 mmHg 27%
    06:00 +12°C° 0 mm 4 m/S 718 mmHg 30%
    07:00 +14°C° 0 mm 5 m/S 719 mmHg 32%
    08:00 +15°C° 0 mm 5 m/S 719 mmHg 33%
    09:00 +17°C° 0 mm 6 m/S 719 mmHg 34%
    10:00 +20°C° 0 mm 5 m/S 719 mmHg 30%
    11:00 +22°C° 0 mm 5 m/S 719 mmHg 26%
    12:00 +25°C° 0 mm 4 m/S 719 mmHg 21%
    13:00 +26°C° 0 mm 3 m/S 719 mmHg 19%
    14:00 +26°C° 0 mm 2 m/S 718 mmHg 17%
    15:00 +27°C° 0 mm 1 m/S 717 mmHg 14%
    16:00 +25°C° 0 mm 1 m/S 717 mmHg 16%
    17:00 +23°C° 0 mm 1 m/S 717 mmHg 18%
    18:00 +22°C° 0 mm 1 m/S 717 mmHg 20%
    19:00 +20°C° 0 mm 2 m/S 717 mmHg 22%
    20:00 +20°C° 0 mm 3 m/S 718 mmHg 24%
    21:00 +19°C° 0 mm 4 m/S 718 mmHg 25%
    22:00 +18°C° 0 mm 4 m/S 718 mmHg 30%
    23:00 +17°C° 0 mm 4 m/S 718 mmHg 35%

    Morgen, 17 August, Freitag

    Zeit Temperatur Niederschläge Wind Luftdruck Luftfeuchtigkeit
    00:00 +15°C° 0 mm 4 m/S 718 mmHg 39%
    01:00 +15°C° 0 mm 4 m/S 718 mmHg 42%
    02:00 +14°C° 0 mm 4 m/S 718 mmHg 45%
    03:00 +13°C° 0 mm 4 m/S 717 mmHg 47%
    04:00 +13°C° 0 mm 4 m/S 718 mmHg 49%
    05:00 +12°C° 0 mm 4 m/S 718 mmHg 51%
    06:00 +11°C° 0 mm 3 m/S 718 mmHg 53%
    07:00 +13°C° 0 mm 4 m/S 718 mmHg 48%
    08:00 +15°C° 0 mm 4 m/S 719 mmHg 42%
    09:00 +16°C° 0 mm 5 m/S 719 mmHg 37%
    10:00 +20°C° 0 mm 4 m/S 719 mmHg 30%
    11:00 +22°C° 0 mm 3 m/S 719 mmHg 24%
    12:00 +25°C° 0 mm 3 m/S 719 mmHg 17%
    13:00 +26°C° 0 mm 2 m/S 718 mmHg 15%
    14:00 +27°C° 0 mm 2 m/S 717 mmHg 13%
    15:00 +28°C° 0 mm 1 m/S 717 mmHg 11%
    16:00 +26°C° 0 mm 1 m/S 717 mmHg 13%
    17:00 +24°C° 0 mm 1 m/S 717 mmHg 15%
    18:00 +22°C° 0 mm 1 m/S 717 mmHg 17%
    19:00 +21°C° 0 mm 2 m/S 717 mmHg 18%
    20:00 +20°C° 0 mm 2 m/S 718 mmHg 19%
    21:00 +19°C° 0 mm 3 m/S 719 mmHg 20%
    22:00 +19°C° 0 mm 4 m/S 719 mmHg 24%
    23:00 +19°C° 0 mm 5 m/S 719 mmHg 28%

    übermorgen, 18 August, Samstag

    Zeit Temperatur Niederschläge Wind Luftdruck Luftfeuchtigkeit
    00:00 +17°C° 0 mm 6 m/S 720 mmHg 32%
    01:00 +16°C° 0 mm 6 m/S 720 mmHg 36%
    02:00 +16°C° 0 mm 6 m/S 720 mmHg 40%
    03:00 +15°C° 0 mm 7 m/S 720 mmHg 44%
    04:00 +14°C° 0 mm 7 m/S 720 mmHg 45%
    05:00 +14°C° 0 mm 7 m/S 720 mmHg 46%
    06:00 +12°C° 0 mm 7 m/S 721 mmHg 48%
    07:00 +14°C° 0 mm 7 m/S 722 mmHg 46%
    08:00 +15°C° 0 mm 8 m/S 722 mmHg 45%
    09:00 +16°C° 0 mm 8 m/S 723 mmHg 44%
    10:00 +18°C° 0 mm 8 m/S 723 mmHg 40%
    11:00 +21°C° 0 mm 8 m/S 723 mmHg 35%
    12:00 +23°C° 0 mm 7 m/S 723 mmHg 31%
    13:00 +23°C° 0 mm 7 m/S 722 mmHg 29%
    14:00 +24°C° 0 mm 6 m/S 722 mmHg 27%
    15:00 +24°C° 0 mm 6 m/S 721 mmHg 26%
    16:00 +23°C° 0 mm 5 m/S 722 mmHg 28%
    17:00 +22°C° 0 mm 5 m/S 722 mmHg 30%
    18:00 +21°C° 0 mm 5 m/S 722 mmHg 32%
    19:00 +20°C° 0 mm 5 m/S 723 mmHg 35%
    20:00 +19°C° 0 mm 6 m/S 724 mmHg 39%
    21:00 +16°C° 0 mm 6 m/S 724 mmHg 42%
    22:00 +16°C° 0 mm 6 m/S 725 mmHg 43%
    23:00 +15°C° 0 mm 7 m/S 725 mmHg 44%

    19 August, Sonntag

    Zeit Temperatur Niederschläge Wind Luftdruck Luftfeuchtigkeit
    00:00 +14°C° 0 mm 7 m/S 725 mmHg 45%
    01:00 +12°C° 0 mm 7 m/S 725 mmHg 44%
    02:00 +11°C° 0 mm 7 m/S 725 mmHg 43%
    03:00 +11°C° 0 mm 7 m/S 725 mmHg 42%
    04:00 +10°C° 0 mm 7 m/S 725 mmHg 42%
    05:00 +9°C° 0 mm 6 m/S 726 mmHg 42%
    06:00 +9°C° 0 mm 6 m/S 726 mmHg 43%
    07:00 +10°C° 0 mm 7 m/S 727 mmHg 43%
    08:00 +11°C° 0 mm 8 m/S 727 mmHg 43%
    09:00 +12°C° 0 mm 9 m/S 728 mmHg 43%
    10:00 +13°C° 0 mm 9 m/S 727 mmHg 39%
    11:00 +16°C° 0 mm 9 m/S 727 mmHg 35%
    12:00 +18°C° 0 mm 8 m/S 727 mmHg 32%
    13:00 +20°C° 0 mm 8 m/S 726 mmHg 29%
    14:00 +21°C° 0 mm 7 m/S 725 mmHg 26%
    15:00 +21°C° 0 mm 7 m/S 725 mmHg 23%
    16:00 +20°C° 0 mm 6 m/S 725 mmHg 24%
    17:00 +19°C° 0 mm 6 m/S 725 mmHg 24%
    18:00 +17°C° 0 mm 5 m/S 725 mmHg 25%
    19:00 +16°C° 0 mm 5 m/S 726 mmHg 27%
    20:00 +14°C° 0 mm 5 m/S 726 mmHg 29%
    21:00 +13°C° 0 mm 6 m/S 727 mmHg 31%
    22:00 +12°C° 0 mm 5 m/S 726 mmHg 33%
    23:00 +10°C° 0 mm 5 m/S 726 mmHg 34%

    20 August, Montag

    Zeit Temperatur Niederschläge Wind Luftdruck Luftfeuchtigkeit
    00:00 +9°C° 0 mm 5 m/S 726 mmHg 36%
    01:00 +9°C° 0 mm 5 m/S 726 mmHg 38%
    02:00 +8°C° 0 mm 5 m/S 726 mmHg 41%
    03:00 +7°C° 0 mm 5 m/S 726 mmHg 43%
    04:00 +7°C° 0 mm 4 m/S 726 mmHg 44%
    05:00 +6°C° 0 mm 4 m/S 726 mmHg 46%
    06:00 +6°C° 0 mm 4 m/S 726 mmHg 47%
    07:00 +7°C° 0 mm 5 m/S 726 mmHg 42%
    08:00 +9°C° 0 mm 6 m/S 727 mmHg 37%
    09:00 +10°C° 0 mm 7 m/S 727 mmHg 33%
    10:00 +12°C° 0 mm 7 m/S 726 mmHg 27%
    11:00 +15°C° 0 mm 7 m/S 726 mmHg 22%
    12:00 +17°C° 0 mm 7 m/S 725 mmHg 17%
    13:00 +19°C° 0 mm 6 m/S 724 mmHg 15%
    14:00 +21°C° 0 mm 6 m/S 723 mmHg 13%
    15:00 +22°C° 0 mm 5 m/S 722 mmHg 11%
    16:00 +20°C° 0 mm 5 m/S 722 mmHg 11%
    17:00 +19°C° 0 mm 4 m/S 722 mmHg 12%
    18:00 +18°C° 0 mm 3 m/S 722 mmHg 13%
    19:00 +17°C° 0 mm 4 m/S 722 mmHg 13%
    20:00 +14°C° 0 mm 4 m/S 722 mmHg 14%
    21:00 +13°C° 0 mm 4 m/S 722 mmHg 15%
    22:00 +13°C° 0 mm 4 m/S 722 mmHg 16%
    23:00 +12°C° 0 mm 4 m/S 722 mmHg 18%

    21 August, Dienstag

    Zeit Temperatur Niederschläge Wind Luftdruck Luftfeuchtigkeit
    00:00 +11°C° 0 mm 4 m/S 722 mmHg 19%
    01:00 +10°C° 0 mm 4 m/S 721 mmHg 21%
    02:00 +9°C° 0 mm 3 m/S 721 mmHg 23%
    03:00 +9°C° 0 mm 3 m/S 721 mmHg 25%
    04:00 +8°C° 0 mm 3 m/S 721 mmHg 26%
    05:00 +8°C° 0 mm 3 m/S 721 mmHg 26%
    06:00 +7°C° 0 mm 2 m/S 721 mmHg 27%
    07:00 +10°C° 0 mm 3 m/S 721 mmHg 24%
    08:00 +12°C° 0 mm 4 m/S 721 mmHg 21%
    09:00 +14°C° 0 mm 4 m/S 721 mmHg 18%
    10:00 +16°C° 0 mm 5 m/S 721 mmHg 16%
    11:00 +19°C° 0 mm 5 m/S 720 mmHg 14%
    12:00 +22°C° 0 mm 6 m/S 719 mmHg 12%
    13:00 +23°C° 0 mm 6 m/S 719 mmHg 11%
    14:00 +25°C° 0 mm 5 m/S 718 mmHg 11%
    15:00 +26°C° 0 mm 5 m/S 717 mmHg 10%
    16:00 +23°C° 0 mm 4 m/S 717 mmHg 12%
    17:00 +22°C° 0 mm 4 m/S 717 mmHg 13%
    18:00 +20°C° 0 mm 3 m/S 717 mmHg 14%
    19:00 +19°C° 0 mm 3 m/S 717 mmHg 15%
    20:00 +18°C° 0 mm 3 m/S 718 mmHg 15%
    21:00 +18°C° 0 mm 3 m/S 718 mmHg 16%
    22:00 +17°C° 0 mm 3 m/S 718 mmHg 16%
    23:00 +17°C° 0 mm 4 m/S 717 mmHg 16%
    Mehr zeigen